• en Belgique
  • Liste des pays
  • À 7 jours
  • Température de l'eau
  • Carte satellitaire
  • Carte météo
  • Widgets météo
  • user-avatar
    Se connecter

    Météo par heure à Biskra

    Ce jour, 21 Novembre, Mardi

    Heure Température Précipitation Vent Pression Humidité
    00:00 +13°C° 0 mm 0 m/s 758 mmHg 41%
    01:00 +13°C° 0 mm 0 m/s 758 mmHg 42%
    02:00 +12°C° 0 mm 0 m/s 758 mmHg 42%
    03:00 +12°C° 0 mm 0 m/s 757 mmHg 43%
    04:00 +12°C° 0 mm 0 m/s 758 mmHg 43%
    05:00 +11°C° 0 mm 0 m/s 758 mmHg 43%
    06:00 +11°C° 0 mm 0 m/s 758 mmHg 43%
    07:00 +13°C° 0 mm 0 m/s 758 mmHg 38%
    08:00 +15°C° 0 mm 0 m/s 758 mmHg 33%
    09:00 +17°C° 0 mm 0 m/s 758 mmHg 28%
    10:00 +18°C° 0 mm 0 m/s 758 mmHg 27%
    11:00 +21°C° 0 mm 1 m/s 758 mmHg 26%
    12:00 +21°C° 0 mm 1 m/s 757 mmHg 25%
    13:00 +22°C° 0 mm 1 m/s 757 mmHg 25%
    14:00 +22°C° 0 mm 1 m/s 757 mmHg 24%
    15:00 +22°C° 0 mm 1 m/s 756 mmHg 24%
    16:00 +21°C° 0 mm 1 m/s 756 mmHg 28%
    17:00 +19°C° 0 mm 1 m/s 756 mmHg 31%
    18:00 +18°C° 0 mm 1 m/s 756 mmHg 35%
    19:00 +16°C° 0 mm 1 m/s 757 mmHg 36%
    20:00 +16°C° 0 mm 1 m/s 757 mmHg 36%
    21:00 +16°C° 0 mm 1 m/s 757 mmHg 37%
    22:00 +15°C° 0 mm 1 m/s 757 mmHg 38%
    23:00 +14°C° 0 mm 0 m/s 757 mmHg 40%

    Demain, 22 Novembre, Mercredi

    Heure Température Précipitation Vent Pression Humidité
    00:00 +13°C° 0 mm 0 m/s 757 mmHg 41%
    01:00 +13°C° 0 mm 0 m/s 756 mmHg 41%
    02:00 +12°C° 0 mm 0 m/s 756 mmHg 42%
    03:00 +12°C° 0 mm 0 m/s 756 mmHg 42%
    04:00 +12°C° 0 mm 0 m/s 756 mmHg 43%
    05:00 +12°C° 0 mm 0 m/s 756 mmHg 43%
    06:00 +11°C° 0 mm 0 m/s 756 mmHg 44%
    07:00 +14°C° 0 mm 1 m/s 756 mmHg 39%
    08:00 +16°C° 0 mm 1 m/s 756 mmHg 34%
    09:00 +18°C° 0 mm 1 m/s 756 mmHg 29%
    10:00 +19°C° 0 mm 1 m/s 756 mmHg 27%
    11:00 +20°C° 0 mm 1 m/s 756 mmHg 25%
    12:00 +21°C° 0 mm 1 m/s 755 mmHg 23%
    13:00 +20°C° 0 mm 2 m/s 755 mmHg 23%
    14:00 +20°C° 0 mm 2 m/s 755 mmHg 23%
    15:00 +20°C° 0 mm 2 m/s 754 mmHg 23%
    16:00 +19°C° 0 mm 2 m/s 755 mmHg 26%
    17:00 +20°C° 0 mm 1 m/s 755 mmHg 28%
    18:00 +19°C° 0 mm 1 m/s 755 mmHg 31%
    19:00 +18°C° 0 mm 1 m/s 755 mmHg 33%
    20:00 +16°C° 0 mm 1 m/s 755 mmHg 35%
    21:00 +15°C° 0 mm 1 m/s 755 mmHg 37%
    22:00 +15°C° 0 mm 1 m/s 755 mmHg 36%
    23:00 +15°C° 0 mm 1 m/s 755 mmHg 36%

    Après-demain, 23 Novembre, Jeudi

    Heure Température Précipitation Vent Pression Humidité
    00:00 +15°C° 0 mm 1 m/s 755 mmHg 36%
    01:00 +15°C° 0 mm 1 m/s 755 mmHg 36%
    02:00 +14°C° 0 mm 1 m/s 755 mmHg 36%
    03:00 +14°C° 0 mm 1 m/s 754 mmHg 36%
    04:00 +14°C° 0 mm 1 m/s 755 mmHg 37%
    05:00 +14°C° 0 mm 1 m/s 755 mmHg 37%
    06:00 +13°C° 0 mm 1 m/s 755 mmHg 37%
    07:00 +15°C° 0 mm 1 m/s 755 mmHg 34%
    08:00 +16°C° 0 mm 0 m/s 756 mmHg 31%
    09:00 +17°C° 0 mm 0 m/s 756 mmHg 28%
    10:00 +20°C° 0 mm 1 m/s 756 mmHg 28%
    11:00 +21°C° 0 mm 1 m/s 756 mmHg 27%
    12:00 +21°C° 0 mm 1 m/s 756 mmHg 27%
    13:00 +21°C° 0 mm 1 m/s 755 mmHg 26%
    14:00 +22°C° 0 mm 1 m/s 755 mmHg 26%
    15:00 +22°C° 0 mm 1 m/s 755 mmHg 26%
    16:00 +21°C° 0 mm 1 m/s 755 mmHg 28%
    17:00 +19°C° 0 mm 1 m/s 756 mmHg 31%
    18:00 +18°C° 0 mm 1 m/s 756 mmHg 34%
    19:00 +18°C° 0 mm 1 m/s 756 mmHg 34%
    20:00 +18°C° 0 mm 1 m/s 757 mmHg 35%
    21:00 +16°C° 0 mm 1 m/s 757 mmHg 35%
    22:00 +16°C° 0 mm 1 m/s 757 mmHg 36%
    23:00 +15°C° 0 mm 1 m/s 757 mmHg 37%

    24 Novembre, Vendredi

    Heure Température Précipitation Vent Pression Humidité
    00:00 +14°C° 0 mm 0 m/s 757 mmHg 38%
    01:00 +15°C° 0 mm 1 m/s 757 mmHg 38%
    02:00 +14°C° 0 mm 1 m/s 756 mmHg 37%
    03:00 +14°C° 0 mm 1 m/s 756 mmHg 37%
    04:00 +14°C° 0 mm 1 m/s 756 mmHg 37%
    05:00 +13°C° 0 mm 0 m/s 756 mmHg 38%
    06:00 +12°C° 0 mm 0 m/s 757 mmHg 38%
    07:00 +14°C° 0 mm 0 m/s 757 mmHg 34%
    08:00 +16°C° 0 mm 0 m/s 757 mmHg 30%
    09:00 +18°C° 0 mm 0 m/s 758 mmHg 26%
    10:00 +19°C° 0 mm 0 m/s 758 mmHg 26%
    11:00 +22°C° 0 mm 1 m/s 757 mmHg 26%
    12:00 +22°C° 0 mm 1 m/s 757 mmHg 27%
    13:00 +22°C° 0 mm 1 m/s 757 mmHg 27%
    14:00 +22°C° 0 mm 1 m/s 756 mmHg 28%
    15:00 +23°C° 0 mm 1 m/s 756 mmHg 29%
    16:00 +21°C° 0 mm 1 m/s 756 mmHg 33%
    17:00 +20°C° 0 mm 1 m/s 757 mmHg 37%
    18:00 +19°C° 0 mm 1 m/s 757 mmHg 41%
    19:00 +18°C° 0 mm 1 m/s 757 mmHg 42%
    20:00 +18°C° 0 mm 1 m/s 758 mmHg 43%
    21:00 +16°C° 0 mm 1 m/s 758 mmHg 45%
    22:00 +16°C° 0 mm 1 m/s 758 mmHg 46%
    23:00 +16°C° 0 mm 1 m/s 758 mmHg 48%

    25 Novembre, Samedi

    Heure Température Précipitation Vent Pression Humidité
    00:00 +15°C° 0 mm 1 m/s 758 mmHg 49%
    01:00 +15°C° 0 mm 1 m/s 758 mmHg 51%
    02:00 +15°C° 0 mm 1 m/s 758 mmHg 53%
    03:00 +14°C° 0 mm 1 m/s 758 mmHg 55%
    04:00 +14°C° 0 mm 1 m/s 758 mmHg 58%
    05:00 +14°C° 0 mm 1 m/s 758 mmHg 60%
    06:00 +14°C° 0 mm 1 m/s 758 mmHg 63%
    07:00 +15°C° 0 mm 1 m/s 758 mmHg 59%
    08:00 +18°C° 0 mm 1 m/s 759 mmHg 55%
    09:00 +19°C° 0 mm 1 m/s 759 mmHg 50%
    10:00 +20°C° 0 mm 1 m/s 759 mmHg 50%
    11:00 +21°C° 0 mm 1 m/s 758 mmHg 49%
    12:00 +20°C° 0 mm 2 m/s 758 mmHg 48%
    13:00 +21°C° 0 mm 2 m/s 757 mmHg 48%
    14:00 +21°C° 0 mm 2 m/s 757 mmHg 48%
    15:00 +21°C° 0 mm 2 m/s 757 mmHg 47%
    16:00 +21°C° 0 mm 1 m/s 757 mmHg 52%
    17:00 +20°C° 0 mm 1 m/s 758 mmHg 57%
    18:00 +19°C° 0 mm 1 m/s 758 mmHg 62%
    19:00 +18°C° 0 mm 1 m/s 758 mmHg 64%
    20:00 +16°C° 0 mm 0 m/s 759 mmHg 66%
    21:00 +15°C° 0 mm 0 m/s 759 mmHg 69%
    22:00 +15°C° 0 mm 0 m/s 759 mmHg 69%
    23:00 +14°C° 0 mm 0 m/s 759 mmHg 70%

    26 Novembre, Dimanche

    Heure Température Précipitation Vent Pression Humidité
    00:00 +14°C° 0 mm 0 m/s 759 mmHg 71%
    01:00 +14°C° 0 mm 0 m/s 759 mmHg 71%
    02:00 +14°C° 0 mm 0 m/s 759 mmHg 71%
    03:00 +14°C° 0 mm 1 m/s 759 mmHg 72%
    04:00 +13°C° 0 mm 0 m/s 759 mmHg 71%
    05:00 +13°C° 0 mm 0 m/s 759 mmHg 69%
    06:00 +14°C° 0 mm 0 m/s 759 mmHg 68%
    07:00 +15°C° 0 mm 0 m/s 759 mmHg 63%
    08:00 +16°C° 0 mm 0 m/s 760 mmHg 58%
    09:00 +17°C° 0 mm 0 m/s 760 mmHg 52%
    10:00 +18°C° 0 mm 0 m/s 760 mmHg 51%
    11:00 +21°C° 0 mm 1 m/s 759 mmHg 49%
    12:00 +21°C° 0 mm 1 m/s 759 mmHg 48%
    13:00 +22°C° 0 mm 1 m/s 759 mmHg 46%
    14:00 +22°C° 0 mm 1 m/s 758 mmHg 45%
    15:00 +22°C° 0 mm 1 m/s 758 mmHg 44%
    16:00 +21°C° 0 mm 1 m/s 758 mmHg 49%
    17:00 +20°C° 0 mm 1 m/s 759 mmHg 54%
    18:00 +18°C° 0 mm 1 m/s 759 mmHg 59%
    19:00 +18°C° 0 mm 1 m/s 759 mmHg 61%
    20:00 +15°C° 0 mm 0 m/s 759 mmHg 62%
    21:00 +15°C° 0 mm 0 m/s 759 mmHg 64%
    22:00 +15°C° 0 mm 0 m/s 759 mmHg 64%
    23:00 +16°C° 0 mm 1 m/s 759 mmHg 65%
    Voir plus